Theta_e
343 344 345 345 346 346 347 347 346 347 349 350 348 349 352 346 353 352 354 353 359 357 357 355 354 354 353 349 349 350 356 357 354 354 353 355 364 366 370 367 371 373 373 375 371 372 367 371 365 371 370 369 365 362 362 365 368 367 366 367 360 364 360 359 357 359 364 363 357 358 358 356 359 360 354 350 354 354 355 357 352 353 351 354 356
343 342 344 345 345 345 346 347 348 345 348 349 346 349 350 342 350 351 354 354 359 358 358 357 358 353 351 349 347 349 353 353 355 360 351 355 367 369 369 367 370 371 375 375 376 374 369 368 373 370 370 368 368 369 368 368 367 366 365 365 366 361 361 354 357 356 356 349 348 349 351 353 359 349 346 345 347 349 352 362 363 348 348 349 349
341 341 343 344 345 345 345 346 346 346 347 347 348 350 352 348 353 352 354 355 358 359 358 358 358 357 352 351 348 346 351 352 351 352 354 352 359 366 368 371 369 371 371 374 372 371 373 371 371 373 365 368 371 369 368 365 369 364 365 363 362 363 361 363 363 359 353 351 354 356 343 342 353 354 346 346 342 346 347 347 347 345 347 356 357
341 341 341 343 344 344 345 345 347 347 348 347 347 350 349 352 356 354 355 356 357 360 360 358 358 359 361 357 354 348 347 353 358 356 357 354 355 360 368 371 369 367 367 367 369 370 369 368 370 370 371 372 371 372 370 364 365 365 363 363 363 355 353 357 360 363 358 357 346 344 342 340 340 349 347 344 343 342 343 343 346 345 348 348 358
341 341 342 342 343 343 345 347 347 345 347 348 348 348 348 353 356 357 356 359 359 361 360 359 360 359 360 362 358 364 350 351 352 348 352 356 355 358 360 367 368 366 366 367 367 370 369 369 369 370 370 371 371 370 367 361 362 364 364 365 360 359 355 354 360 356 359 366 357 350 346 344 340 339 336 347 345 343 340 342 348 344 345 349 349
340 341 342 342 343 344 346 347 346 346 347 349 350 351 350 353 356 360 357 360 358 362 360 359 358 357 355 356 350 356 348 347 348 347 342 347 348 354 358 359 362 364 367 367 366 367 370 371 371 369 373 374 373 368 366 367 366 365 364 363 361 363 362 358 356 366 360 365 363 363 353 346 347 345 341 343 370 340 344 343 344 342 346 346 350
343 345 344 342 342 344 345 346 346 346 348 350 351 352 353 356 357 359 359 360 360 362 361 359 358 359 355 353 351 350 353 349 354 349 348 348 353 356 359 359 366 362 361 367 366 369 370 371 371 371 369 369 373 373 372 362 360 363 365 366 363 372 369 361 357 354 366 363 355 349 352 350 350 349 344 351 346 355 351 346 340 342 343 345 346
338 343 344 343 344 344 345 346 347 347 349 350 351 353 355 357 358 359 361 361 361 362 361 360 358 358 358 354 352 348 348 352 353 358 358 354 353 354 357 358 364 365 364 369 368 369 370 370 373 371 373 365 369 370 366 364 363 366 368 371 370 371 372 367 358 359 362 359 358 353 352 352 351 345 341 345 345 348 345 341 342 338 345 339 342
343 344 343 344 345 344 345 347 349 349 349 351 352 354 357 358 361 361 362 362 362 363 361 360 360 360 357 354 354 351 353 356 356 357 360 358 354 360 359 358 364 366 369 366 367 369 369 371 372 372 370 371 369 367 364 360 361 367 374 370 369 371 367 372 370 368 360 355 361 359 356 359 350 346 349 347 349 347 344 342 345 343 345 344 340
341 341 344 347 346 346 347 348 349 349 350 353 352 354 355 358 361 361 362 361 363 363 361 361 361 362 358 354 355 351 354 356 355 355 362 363 361 357 364 367 360 363 365 370 369 369 369 370 368 367 368 362 364 364 363 365 364 368 369 369 370 370 377 368 366 368 367 362 357 360 365 358 356 354 346 342 344 350 343 341 342 343 342 355 342
343 343 344 346 345 346 348 348 351 351 351 352 352 354 355 356 361 361 362 361 363 363 363 360 361 362 358 356 356 353 353 354 353 355 355 360 358 355 359 366 363 361 360 366 367 365 368 369 364 365 366 367 370 368 368 360 359 362 363 369 370 370 370 370 367 365 368 366 363 363 360 355 351 354 349 352 349 347 347 337 337 337 342 346 358
342 342 342 345 347 347 347 347 348 351 350 351 352 353 356 357 359 361 363 362 362 363 362 360 361 361 360 358 357 356 354 350 352 354 352 354 353 356 359 361 365 363 363 363 361 360 367 368 368 367 369 369 368 368 367 366 361 361 364 369 370 370 371 376 369 368 361 370 361 359 359 353 352 351 351 362 359 353 348 344 343 347 347 349 352
340 341 344 345 345 344 344 348 350 351 351 352 351 351 353 358 359 360 362 364 363 363 362 362 362 361 360 358 358 358 356 354 353 355 354 353 352 354 359 357 360 363 363 359 359 361 366 368 366 368 369 368 370 370 370 374 376 372 371 362 366 368 369 368 369 366 361 362 360 358 356 351 353 351 351 347 349 367 362 348 344 344 346 349 352
343 344 343 344 347 348 349 349 351 352 351 350 351 353 354 355 359 359 362 364 364 364 362 361 362 362 362 360 359 358 358 355 353 353 355 355 356 354 353 354 358 356 356 359 358 358 361 366 369 368 372 373 373 374 373 374 373 371 368 367 363 369 373 369 371 363 369 363 365 362 358 353 352 351 349 355 346 349 348 343 344 351 343 341 364
340 340 339 342 346 348 347 348 349 350 350 349 350 353 356 357 359 361 362 363 363 364 364 362 361 362 362 362 361 361 358 356 355 353 356 356 355 355 355 353 356 356 357 361 363 366 362 365 368 367 368 373 372 372 370 373 374 373 372 366 371 372 368 369 368 361 360 359 365 364 365 362 358 359 361 345 347 348 347 355 362 357 345 343 343
340 341 344 345 346 348 348 349 350 350 352 349 350 354 355 357 361 362 362 362 363 364 363 362 361 362 363 363 363 362 361 359 358 357 359 360 358 357 358 358 356 360 361 362 359 364 363 364 367 366 370 368 371 372 371 369 372 370 372 371 369 363 369 367 368 363 359 362 361 370 371 360 361 358 353 359 357 360 362 358 368 355 346 340 349
341 340 341 343 345 352 350 350 349 349 351 351 353 355 356 358 360 362 363 363 362 363 362 362 362 362 362 363 362 363 362 358 355 356 352 359 361 360 359 356 357 362 360 360 360 362 367 364 363 362 368 369 369 371 370 371 372 368 367 370 368 364 368 367 369 365 365 357 359 359 366 366 367 367 364 360 372 364 361 367 369 361 363 350 343
338 340 341 341 345 347 353 355 353 355 355 355 355 357 358 359 359 360 362 361 361 361 360 361 362 362 361 362 363 363 360 358 357 356 354 356 360 361 358 357 354 353 357 354 358 361 364 367 365 365 366 366 365 366 369 369 370 368 367 370 368 370 369 370 369 365 365 365 361 363 361 363 367 364 365 358 373 372 371 367 364 365 365 352 350
339 342 344 345 345 347 352 351 352 353 354 354 354 356 357 359 359 361 361 362 361 360 360 362 362 360 360 360 361 362 362 361 361 360 357 355 354 358 356 357 356 354 356 363 360 361 361 364 366 364 367 366 366 366 369 369 369 367 366 366 366 370 369 369 370 368 364 365 366 362 372 370 372 368 370 362 370 366 368 370 368 365 360 356 353
341 341 343 344 346 348 349 350 349 350 352 353 356 358 354 355 360 361 363 364 363 360 362 361 361 360 358 360 361 362 363 363 363 363 359 356 355 355 356 354 357 356 354 358 363 359 361 360 360 359 358 361 363 363 366 368 368 367 365 361 362 367 366 366 364 364 361 364 365 363 367 368 372 373 369 364 371 372 369 366 364 366 365 364 360
342 340 341 342 343 346 349 348 349 349 353 354 352 351 355 356 361 361 362 362 361 360 361 361 361 359 360 360 359 361 361 362 361 363 361 359 357 357 356 356 358 357 356 354 359 360 362 363 360 359 357 358 362 363 363 366 366 367 367 366 365 367 364 365 367 366 362 363 365 365 366 368 370 367 367 364 363 365 366 366 368 370 365 362 359
336 337 337 339 342 344 347 350 351 354 352 354 353 354 354 353 359 361 362 362 361 360 360 360 360 359 358 359 359 359 360 362 360 360 360 360 358 358 360 359 356 359 359 354 356 358 362 363 362 361 360 360 363 366 363 364 365 366 365 363 362 367 366 365 366 366 366 364 367 367 366 366 370 366 363 360 361 358 359 359 362 361 362 363 363
334 337 339 340 342 343 346 350 350 348 349 349 351 351 350 353 358 357 361 362 362 361 361 362 361 360 360 359 360 360 361 360 359 359 358 358 359 358 360 359 354 353 359 357 357 355 360 364 363 364 363 361 364 364 363 362 364 365 364 362 360 361 364 363 363 365 364 365 364 364 362 363 363 363 363 361 359 359 358 359 360 360 360 360 364
335 339 343 344 342 346 349 349 349 350 349 350 351 351 351 352 355 355 359 362 363 363 362 361 360 359 359 360 360 360 359 358 358 358 357 359 358 357 359 358 355 353 355 359 360 357 361 365 364 365 365 361 364 363 362 362 364 365 364 364 364 363 361 361 362 363 363 364 363 363 361 361 362 362 363 362 362 362 362 364 363 366 368 363 362
335 336 339 343 346 346 347 347 347 347 348 349 351 352 352 350 353 354 356 362 363 363 362 361 360 359 357 358 358 359 358 358 358 357 357 357 358 357 358 356 356 353 355 357 361 361 361 363 362 363 365 363 362 363 362 360 362 364 365 364 364 365 364 362 362 363 367 365 364 362 362 362 364 361 362 360 360 362 363 361 361 362 362 364 364
337 337 339 339 343 346 347 347 348 348 347 350 352 353 351 351 353 357 359 362 363 363 362 360 360 358 358 359 359 359 358 358 357 357 355 356 356 358 359 358 358 355 356 356 359 360 361 362 361 361 363 365 365 364 364 362 360 361 363 363 365 365 363 364 364 364 364 365 364 363 362 363 361 360 359 359 362 361 363 362 361 362 364 364 363
336 336 341 342 343 344 349 349 347 346 347 350 352 351 351 351 352 352 354 360 363 363 362 361 360 358 358 358 358 359 359 358 359 357 356 357 357 358 358 357 358 356 354 354 356 359 362 364 363 362 361 364 366 365 365 365 363 362 362 362 362 364 363 363 363 362 363 364 364 363 363 363 361 361 359 359 362 363 362 361 363 363 362 363 363
336 336 343 344 345 348 350 351 348 346 346 346 350 352 353 354 354 356 358 358 362 363 363 363 361 360 359 358 360 358 358 361 360 359 359 358 357 357 358 360 359 357 354 353 355 357 361 363 364 363 363 364 366 365 366 367 365 363 362 362 362 361 361 362 361 362 362 362 364 363 361 361 362 363 362 362 362 362 363 360 362 364 365 364 361
332 336 345 341 346 346 349 350 349 346 346 348 350 351 354 355 356 359 356 359 363 363 362 361 361 360 360 360 361 361 362 362 361 361 360 358 358 358 359 361 362 359 356 354 354 357 358 360 363 364 364 364 364 365 365 366 365 364 362 360 361 361 360 360 361 360 361 362 362 361 361 360 363 368 364 363 362 363 362 362 363 366 366 365 365
337 339 341 348 346 353 355 353 351 349 350 349 351 354 352 354 358 357 359 359 362 362 361 360 360 361 362 362 364 362 362 363 362 362 361 360 359 359 357 359 361 360 360 359 355 359 360 360 361 364 364 363 363 364 359 348 354 363 362 357 360 361 360 359 361 360 360 361 360 359 356 368 365 365 358 355 353 355 360 361 365 369 367 366 365
337 341 340 345 347 354 360 364 357 354 353 352 354 354 356 356 357 358 360 360 360 361 360 361 362 363 364 364 364 362 363 364 363 363 362 362 360 359 358 359 362 361 360 362 358 357 358 360 360 361 362 361 361 360 346 338 341 348 360 359 358 361 363 362 360 361 360 358 358 360 359 363 368 370 362 352 350 348 350 351 354 360 372 374 367
336 338 342 345 343 346 344 347 349 351 356 354 358 356 355 353 356 357 358 359 359 359 358 361 364 365 366 365 363 364 364 364 364 363 363 363 362 361 360 360 361 361 362 362 359 358 358 360 360 361 361 362 363 351 336 335 337 339 350 361 358 358 360 361 360 358 359 359 357 356 356 356 358 361 367 364 354 348 345 346 346 347 348 348 353
336 338 341 343 347 350 350 342 347 348 346 347 351 352 354 356 357 358 359 358 357 358 360 362 365 366 367 366 365 365 364 364 364 364 364 363 362 362 361 359 359 362 364 363 361 359 358 359 360 361 361 362 362 344 332 333 335 335 337 354 359 357 354 357 359 360 358 358 358 357 355 354 350 369 366 367 365 360 345 340 343 345 345 343 337
336 337 340 343 346 347 349 351 355 358 350 351 352 346 351 355 354 359 357 359 360 360 361 362 365 367 368 367 366 366 365 365 365 366 365 363 361 361 360 360 359 362 364 362 362 360 360 360 360 363 362 362 363 343 329 330 331 332 334 343 362 359 356 355 358 361 360 358 360 359 358 356 355 358 365 363 368 366 363 358 355 356 357 356 346
334 336 338 342 346 349 350 351 350 354 355 350 350 351 350 353 356 354 358 362 361 362 362 362 365 368 369 368 367 367 366 366 366 366 366 364 362 362 362 359 357 358 362 363 360 359 360 360 359 361 363 360 361 336 325 326 327 328 332 338 362 360 358 358 359 361 363 361 361 361 361 359 359 359 359 365 366 369 370 368 364 360 359 359 360
332 334 337 340 342 345 346 349 355 353 352 353 348 346 345 344 350 351 353 358 362 362 364 364 366 368 369 368 368 367 368 367 367 366 365 364 363 362 362 360 358 356 360 363 364 361 361 360 360 358 357 359 358 328 324 324 325 326 330 348 360 361 360 359 361 363 363 365 364 363 362 361 360 362 361 350 357 364 367 368 369 369 367 366 364
330 332 334 339 343 345 347 354 353 354 352 350 348 347 344 342 347 349 352 354 358 363 364 364 365 368 368 369 368 367 368 368 367 366 365 364 363 363 363 363 359 357 356 359 361 360 362 361 359 359 357 358 359 332 321 321 322 324 329 355 360 360 360 359 359 364 369 370 368 366 367 364 363 364 356 340 339 357 363 365 366 366 368 369 368
329 332 334 337 340 344 349 351 352 353 354 354 349 348 346 348 345 344 347 349 353 360 364 364 365 368 368 368 368 368 368 368 367 366 366 365 365 364 362 363 359 356 355 358 361 363 363 362 360 359 359 359 359 342 317 319 320 320 335 358 359 360 360 359 360 361 363 365 368 372 373 368 367 367 349 337 334 350 362 363 363 364 365 365 366
329 330 332 334 337 341 345 350 353 352 354 354 355 353 345 348 347 342 343 346 352 358 363 364 365 367 369 370 370 369 369 368 368 368 367 367 365 364 363 364 359 359 360 362 364 363 362 361 360 360 356 359 358 345 314 319 317 317 334 358 361 361 359 360 360 360 362 361 362 365 366 361 364 360 343 335 330 348 363 364 363 362 359 359 362
328 330 332 334 338 341 344 346 349 354 356 357 354 353 351 343 343 345 344 349 354 358 363 366 366 367 370 371 370 371 371 369 370 370 370 370 369 365 363 361 360 359 358 359 362 363 362 361 361 360 362 362 360 361 332 316 315 316 323 358 363 361 358 360 361 361 361 362 362 362 358 336 333 334 334 331 325 328 360 366 365 362 359 359 363
326 327 331 333 336 339 341 345 349 355 357 358 351 350 351 347 344 348 349 351 356 360 364 368 367 365 367 370 370 371 371 372 372 371 369 369 367 365 364 364 360 359 358 358 358 361 360 362 361 362 361 361 362 363 344 314 314 315 318 335 363 362 362 361 362 360 361 361 362 363 363 345 329 326 325 325 320 319 335 365 367 364 363 371 362
325 327 329 331 334 339 342 346 350 353 356 358 357 355 353 355 349 349 353 354 358 363 365 368 367 366 367 368 370 372 372 371 373 373 371 369 369 368 367 366 363 361 360 359 358 359 359 360 361 363 363 364 361 350 358 316 315 313 316 322 355 365 362 363 362 361 361 361 362 365 365 352 329 325 322 320 317 317 319 351 365 343 342 337 365
321 323 327 331 334 337 342 346 349 353 357 360 355 353 352 357 357 355 356 359 363 364 367 369 368 367 369 370 371 371 370 369 371 373 371 368 369 368 369 368 366 365 363 361 361 359 357 358 362 364 366 366 367 362 342 333 315 313 313 316 328 347 339 362 362 361 361 362 365 365 367 356 329 320 318 318 319 320 322 338 331 333 334 333 349
321 323 326 330 333 336 339 345 351 355 359 361 357 354 354 358 361 361 359 364 367 368 369 369 367 368 369 369 370 370 370 370 371 372 370 368 368 368 369 369 368 366 363 361 361 361 359 356 357 361 361 363 368 370 342 328 324 312 313 314 318 325 333 356 362 363 365 365 365 366 363 340 323 314 314 317 319 321 335 325 321 326 329 339 354
319 321 326 329 332 334 339 349 358 362 363 364 362 360 365 365 366 365 364 369 368 368 368 368 368 368 369 369 370 370 370 371 371 371 369 368 368 368 367 369 369 366 364 362 361 362 359 357 355 356 358 361 365 367 362 334 321 315 313 313 315 319 321 328 358 363 363 366 329 320 325 326 319 313 314 317 319 320 319 323 322 324 342 348 350
320 322 324 328 332 336 345 353 356 360 365 365 366 364 367 368 370 367 370 373 369 368 367 368 367 367 368 367 368 367 370 371 371 370 370 369 366 365 365 367 366 364 364 363 362 360 360 359 357 357 357 360 364 366 369 351 328 321 317 314 316 317 322 322 339 356 347 324 319 318 315 315 318 322 331 336 340 340 324 323 327 333 344 347 350
319 321 324 327 332 336 346 351 353 358 362 367 355 363 376 376 370 369 372 373 370 368 366 367 367 366 367 367 366 365 367 368 370 368 367 367 366 365 364 364 364 361 361 362 362 360 360 359 359 358 359 360 361 364 368 359 344 338 332 329 321 324 321 323 331 346 342 344 335 343 351 340 337 329 338 343 343 341 333 331 334 340 346 350 351
320 322 324 329 332 333 343 347 351 354 358 363 362 360 368 369 366 363 370 371 368 366 366 367 366 366 366 366 366 364 364 363 365 366 365 365 365 365 363 363 361 362 361 361 361 360 359 360 359 359 359 359 359 361 363 367 354 348 343 341 334 334 335 334 337 344 351 356 358 336 334 353 351 348 353 358 359 354 347 341 343 342 346 350 352
320 322 326 330 330 330 339 344 345 348 354 352 355 355 363 369 374 368 374 369 368 363 366 366 364 363 363 364 365 366 365 363 365 367 368 367 365 364 364 365 366 368 366 363 362 362 363 363 363 363 361 360 359 359 363 345 359 336 346 349 343 340 341 343 337 331 349 354 357 360 356 358 358 354 354 357 358 358 356 356 355 353 352 353 353
321 324 327 328 328 330 337 340 340 344 345 348 348 352 355 352 349 358 375 369 368 366 367 364 363 362 361 362 362 363 364 362 364 364 365 358 323 313 341 366 364 353 345 339 340 361 364 363 363 367 368 364 365 364 342 330 323 322 323 326 327 325 325 339 333 324 340 352 353 353 355 354 355 354 354 354 354 356 357 356 356 345 354 353 352
322 324 324 325 326 329 333 337 339 340 341 341 344 346 349 352 352 349 349 363 371 367 366 365 363 363 359 361 362 362 363 365 365 364 366 360 356 345 307 297 323 346 328 312 316 322 329 338 368 367 363 324 335 341 331 320 315 318 317 318 317 316 316 319 320 332 344 349 353 352 352 353 352 353 353 353 355 355 353 355 354 354 354 352 349
Wind_Speed
16 17 19 19 19 17 16 15 15 15 14 13 15 15 11 14 10 14 11 10 10 9 8 8 8 6 6 8 8 7 4 3 4 5 5 7 8 7 5 7 5 4 5 3 4 6 4 2 3 2 3 3 3 3 4 4 2 2 2 1 2 1 1 4 3 1 1 1 2 1 2 3 2 2 3 3 2 3 3 3 4 3 5 4 4
16 15 17 20 17 18 17 15 16 17 14 15 16 15 12 16 12 14 11 11 11 10 8 8 7 7 7 6 8 7 5 5 3 3 5 8 7 6 4 5 6 5 4 4 3 4 5 4 5 4 3 2 3 3 3 2 3 2 1 1 2 2 1 1 2 0 1 3 3 2 3 3 3 4 4 5 6 4 3 1 2 4 4 4 4
15 18 18 18 20 20 16 15 16 17 18 18 16 15 13 14 10 12 10 12 11 11 9 8 8 7 7 6 7 7 5 6 6 5 4 8 8 7 4 4 6 5 4 4 4 2 3 4 2 4 3 2 3 3 4 3 3 3 2 2 1 1 1 0 0 1 2 2 2 1 2 2 1 2 5 5 8 7 5 5 4 5 4 3 4
18 19 19 19 19 18 16 16 15 16 16 17 18 16 13 12 10 12 11 12 10 10 9 8 9 7 6 5 5 7 6 5 5 5 4 8 8 8 4 4 6 5 6 5 4 4 4 3 3 2 5 3 4 2 2 3 4 3 2 2 2 2 2 2 0 1 3 2 2 2 4 4 2 3 3 4 3 8 9 8 5 6 4 5 3
11 17 19 19 19 20 17 16 17 16 17 17 18 17 14 15 12 13 11 11 10 11 10 8 8 7 5 5 4 4 7 5 4 5 3 6 8 7 6 5 5 5 6 5 4 4 5 5 5 3 4 4 3 3 3 3 2 3 3 3 2 1 1 1 2 3 1 2 2 2 1 1 0 2 4 4 3 3 5 9 3 4 7 6 5
16 19 19 19 19 18 16 18 19 17 17 17 18 18 16 14 13 12 12 10 12 12 12 9 8 8 8 6 6 3 7 7 6 6 6 4 8 9 8 7 8 5 5 6 5 5 4 3 4 5 4 3 4 4 5 3 4 3 4 4 4 3 1 2 2 1 1 1 1 1 1 1 2 3 1 2 1 3 3 8 7 6 8 6 6
15 16 18 20 19 18 19 18 19 19 18 17 17 17 16 15 14 14 12 10 12 12 12 9 9 8 9 8 6 5 6 6 5 5 6 5 3 8 8 7 7 7 7 5 5 4 4 4 3 2 5 5 4 3 3 4 3 3 2 2 2 1 1 2 4 2 3 2 2 4 3 3 1 2 1 1 1 2 2 1 8 9 10 9 6
17 17 14 17 18 18 19 20 19 19 19 19 18 17 16 15 16 14 11 11 11 12 11 10 11 10 9 8 7 7 6 6 7 4 5 6 5 4 8 7 7 5 5 5 5 5 4 4 3 3 2 3 4 3 3 3 3 2 4 2 4 3 0 1 1 2 1 2 1 3 2 2 3 6 5 1 2 1 2 5 3 3 0 5 10
15 15 18 18 19 20 19 19 20 20 19 19 18 17 15 16 16 14 13 12 12 14 12 12 11 11 10 8 7 7 6 6 5 4 3 5 7 3 5 7 8 6 4 5 5 4 4 3 4 4 3 2 3 4 4 5 5 3 2 3 2 2 2 0 1 1 0 2 1 2 3 1 2 3 2 3 1 0 2 1 1 2 1 1 3
19 19 17 16 16 19 20 19 19 18 18 17 18 17 17 15 16 17 15 13 12 15 14 13 13 11 11 9 10 8 6 6 6 6 4 3 4 5 3 5 8 6 5 4 6 5 5 5 4 5 4 4 3 3 4 3 7 5 4 3 2 2 1 2 2 2 1 2 4 2 0 3 2 2 2 3 1 1 2 2 2 2 2 1 5
14 15 16 17 19 18 18 19 17 18 16 18 18 17 18 17 17 18 17 14 13 16 15 15 13 12 11 11 11 10 9 7 7 7 6 4 4 5 4 4 6 7 6 5 5 6 5 5 6 6 5 4 3 3 3 3 4 4 4 5 3 2 3 3 2 2 3 4 5 3 3 2 3 2 2 3 3 0 1 5 5 5 2 1 0
18 17 18 19 18 18 18 19 19 17 17 18 19 18 17 16 17 18 16 15 14 16 16 15 13 13 12 13 12 11 10 8 8 8 9 7 6 6 5 5 3 6 6 6 6 8 5 5 5 5 5 4 4 3 3 2 3 4 4 4 3 3 2 1 2 1 2 0 1 2 3 4 5 3 2 1 1 2 3 3 3 3 3 1 2
18 15 14 14 15 16 18 16 15 17 14 16 18 20 18 17 18 20 18 17 16 17 17 17 14 13 13 13 12 10 11 9 8 8 8 8 7 6 6 6 6 4 6 7 8 8 6 7 6 5 5 5 4 4 3 3 2 2 3 4 3 4 4 3 3 3 2 2 2 1 3 4 3 5 3 4 3 2 1 2 5 5 2 3 1
18 17 16 13 14 14 13 14 14 15 19 19 19 17 16 18 19 20 19 18 16 16 17 17 15 15 13 13 12 11 10 10 9 9 9 8 8 7 7 8 7 7 6 6 7 9 7 7 7 6 4 4 4 3 3 2 2 2 1 2 3 3 2 3 3 3 2 4 4 4 5 3 3 4 4 1 5 4 4 5 4 2 2 4 1
17 16 18 17 16 16 16 17 17 18 20 20 18 16 15 16 18 20 19 18 17 17 16 17 15 15 13 13 12 11 11 10 9 9 8 9 9 8 7 7 7 7 7 5 5 6 8 7 8 7 5 4 5 4 4 3 3 2 2 2 2 1 3 2 3 4 4 3 3 4 3 3 4 5 1 5 4 4 6 2 2 1 1 3 4
19 19 18 18 17 16 16 16 15 16 17 18 19 16 17 17 19 21 21 20 18 18 17 17 16 14 14 14 14 12 10 10 8 9 8 9 9 8 9 7 7 7 7 6 8 5 7 7 8 7 6 6 5 5 5 4 4 4 4 3 2 3 2 3 3 3 4 4 4 2 0 4 3 2 3 3 0 2 3 3 2 3 2 2 2
18 18 19 18 17 12 14 16 16 15 17 18 15 17 18 17 19 21 20 19 19 19 18 17 16 15 15 14 14 13 13 13 12 12 13 10 9 9 9 9 7 6 8 8 7 7 5 8 8 8 8 7 6 6 6 5 4 5 5 4 4 4 3 3 2 3 3 5 3 5 5 4 3 4 3 4 3 4 4 4 2 1 2 1 1
19 18 17 19 18 18 12 10 13 11 9 11 13 16 16 17 20 22 21 21 21 20 19 17 16 16 16 15 14 14 14 15 13 13 12 10 9 9 9 9 9 7 8 9 7 9 6 7 7 8 8 7 7 7 7 6 5 5 5 5 4 4 3 3 3 3 3 3 4 2 4 4 3 3 2 3 1 2 1 0 2 1 2 2 2
18 19 17 17 18 20 15 15 16 14 14 11 13 14 15 16 20 23 24 25 24 20 19 15 17 15 15 16 17 15 13 13 12 12 11 11 13 11 11 9 10 9 7 6 9 9 9 7 7 8 7 9 8 7 7 7 6 5 5 5 5 5 4 3 3 3 3 3 3 3 2 2 2 2 2 2 2 4 2 2 2 2 3 3 2
19 19 18 19 20 21 22 20 18 18 16 12 6 4 16 19 21 22 22 21 21 20 18 18 19 17 16 15 15 13 13 13 12 12 13 13 12 12 12 12 11 10 9 8 7 9 10 9 9 9 9 9 9 8 8 8 7 6 6 6 6 6 5 5 4 4 5 4 4 4 3 2 2 2 2 3 3 2 2 4 4 2 2 2 2
19 20 20 21 21 21 21 21 19 18 13 11 9 10 9 16 20 23 24 24 24 22 21 18 17 16 17 18 18 15 16 14 15 13 13 12 12 11 12 11 9 10 9 10 8 9 10 10 11 9 10 9 9 9 8 7 7 7 6 6 5 7 7 6 5 5 5 4 4 4 3 3 3 3 3 3 3 3 4 3 3 3 3 3 3
20 21 20 20 20 20 21 20 16 11 13 14 12 10 9 11 15 22 24 23 23 22 20 18 17 17 19 19 19 18 16 15 16 15 14 13 12 11 11 11 11 10 10 11 11 9 9 11 11 10 9 9 9 9 10 7 8 8 8 7 7 4 7 7 5 5 6 5 3 3 3 4 3 5 4 5 4 4 4 5 5 5 5 4 5
19 20 21 20 19 19 19 19 16 14 12 13 12 15 16 20 20 20 23 24 23 23 20 18 17 17 19 19 18 17 16 18 18 16 17 17 15 13 11 12 12 12 11 10 11 11 9 10 10 9 9 8 9 10 9 8 8 9 9 8 7 7 6 6 7 7 7 6 5 4 5 4 5 5 5 5 5 4 4 4 5 6 6 5 4
21 21 21 20 19 19 17 15 14 14 15 15 15 15 15 19 18 17 24 25 23 21 20 19 18 20 21 19 18 17 20 20 19 17 18 17 16 15 13 13 14 12 13 11 11 12 10 10 10 10 10 9 8 10 10 9 9 10 9 9 7 7 8 7 7 7 8 7 7 6 6 6 6 5 5 5 5 5 4 4 4 3 3 5 5
22 18 17 20 19 19 16 16 17 17 15 17 15 15 19 20 17 21 20 23 21 20 21 21 21 22 21 19 21 20 20 21 20 17 19 18 17 16 14 15 15 14 13 12 10 11 11 11 11 11 10 11 10 10 10 10 9 9 10 9 9 7 7 8 8 7 7 7 7 7 7 7 5 5 5 5 5 5 5 4 4 4 5 4 3
21 20 19 23 19 16 15 15 16 17 18 19 20 22 21 15 18 16 19 22 22 21 21 21 21 21 20 22 21 20 21 22 21 19 20 19 17 16 16 14 15 14 12 13 12 11 11 12 12 11 10 10 9 9 10 10 11 10 9 10 9 8 8 7 8 8 8 7 8 8 8 7 7 7 6 5 5 7 6 6 5 5 4 4 5
20 17 14 17 16 18 18 19 18 21 19 17 19 20 20 19 20 23 22 23 21 20 18 20 21 22 19 21 21 20 19 20 19 18 17 17 17 17 17 16 15 14 14 15 15 13 11 12 12 12 12 10 10 10 10 10 10 9 10 10 10 9 9 8 7 8 9 9 9 8 7 8 7 7 7 7 6 6 6 6 6 6 5 4 4
12 12 15 18 16 16 17 17 21 21 21 21 20 20 20 19 20 17 21 22 19 19 18 18 19 18 18 21 20 20 19 17 16 14 14 16 17 16 15 14 13 15 16 15 16 15 12 11 12 12 11 10 11 11 10 10 10 10 10 10 10 9 10 9 8 9 9 10 10 10 10 9 9 7 7 6 6 6 6 6 6 5 5 5 5
15 11 13 19 17 17 17 19 18 21 21 22 20 20 17 18 19 18 20 22 18 17 18 20 18 17 17 18 16 17 16 15 15 14 14 14 15 13 13 13 13 14 14 14 14 15 14 13 12 12 11 11 11 12 10 11 11 11 9 10 11 10 9 9 9 10 10 9 9 10 10 11 9 13 13 11 9 8 5 6 6 5 5 6 5
17 17 16 8 15 13 14 17 18 20 19 21 18 16 20 20 19 20 18 18 15 17 16 18 19 17 16 16 16 15 15 15 16 15 14 13 13 13 14 13 14 14 12 11 11 12 15 14 13 13 12 11 10 10 12 17 15 11 10 10 9 10 9 8 8 9 9 10 11 11 10 14 15 17 17 16 15 14 12 9 5 5 7 6 6
16 14 12 12 4 5 4 6 12 16 16 16 15 18 18 20 19 20 18 17 18 16 17 17 17 16 15 15 15 14 14 15 16 16 15 13 13 13 12 11 12 14 12 11 11 11 14 14 14 14 14 13 12 12 16 17 17 17 12 10 9 9 10 9 9 8 9 9 9 10 9 9 8 9 13 17 17 16 16 15 14 10 6 4 5
15 14 13 13 11 8 1 8 9 11 11 5 8 13 17 18 18 19 19 19 18 17 18 15 15 14 14 16 15 15 15 15 15 16 16 14 13 12 12 11 11 14 12 11 12 12 11 13 13 15 15 14 12 13 18 18 18 18 15 11 10 9 9 10 10 9 9 9 9 9 9 9 7 7 6 10 14 16 16 16 16 15 14 12 8
13 14 14 15 14 12 11 7 6 8 8 14 16 10 10 14 14 15 16 19 19 19 16 14 14 15 15 15 14 15 15 15 15 16 15 14 14 12 13 13 13 12 12 11 11 12 11 11 13 14 14 14 13 15 17 20 19 19 18 13 10 9 9 10 10 10 10 9 8 8 8 6 7 12 11 8 9 11 15 17 17 16 15 14 15
11 12 13 13 12 11 10 10 8 6 10 9 8 13 10 10 15 13 16 15 14 14 15 16 15 15 15 15 15 15 15 15 14 14 14 15 15 14 14 13 13 11 12 13 12 12 10 10 10 12 12 12 13 13 19 20 20 20 19 16 10 10 10 9 9 10 10 10 9 8 8 8 7 5 5 8 8 9 9 9 9 8 8 13 13
11 11 11 11 11 11 10 9 10 5 9 9 11 9 9 11 8 11 14 12 13 12 14 15 14 14 14 14 15 15 15 14 14 14 14 15 16 14 14 13 13 12 12 12 13 12 11 11 11 10 11 13 13 15 19 20 21 21 21 15 12 10 8 8 8 8 9 10 9 9 9 9 7 7 7 6 7 8 8 8 9 10 10 10 9
13 12 10 10 11 11 12 12 10 11 8 8 9 10 11 13 14 16 16 14 12 12 13 15 15 15 16 16 16 15 14 14 14 15 15 15 15 15 14 12 12 13 12 11 11 11 12 12 12 12 11 12 12 16 19 20 22 21 21 10 11 11 9 7 6 7 8 8 9 9 8 9 8 8 10 13 11 7 7 8 8 8 8 8 9
15 15 14 12 12 11 12 12 13 11 11 8 10 9 12 16 15 14 10 13 14 12 13 16 16 16 17 17 17 16 15 15 15 15 16 16 15 15 13 11 12 13 13 13 13 14 10 12 13 12 12 10 10 13 19 21 21 22 15 8 13 11 11 10 8 5 4 4 6 8 8 8 9 9 11 12 13 11 7 8 8 8 7 7 8
15 15 14 14 13 14 13 13 14 15 14 11 13 13 15 13 10 11 13 16 18 15 14 16 16 17 17 17 17 16 16 16 15 16 16 15 14 13 13 12 13 13 15 15 14 13 13 13 13 13 13 11 10 11 18 19 21 20 18 12 12 11 11 10 9 8 7 6 6 10 9 8 9 9 11 13 13 11 8 9 8 8 8 9 8
14 15 16 16 16 16 16 15 15 16 16 15 15 17 17 13 13 18 17 16 16 15 15 17 17 17 16 15 16 16 16 16 16 15 14 14 15 13 13 11 13 13 13 11 11 12 13 12 14 15 15 13 13 10 18 19 20 20 18 12 11 11 10 9 9 9 9 9 9 10 13 12 10 11 12 11 14 12 9 9 9 8 9 10 8
15 15 16 17 16 16 15 16 16 16 15 14 17 15 13 12 14 16 18 18 19 17 16 16 15 15 14 14 15 15 15 16 16 15 14 13 12 13 14 14 14 13 12 12 12 13 14 13 13 14 12 13 15 10 14 20 21 21 22 14 10 10 11 11 10 9 9 9 10 10 12 16 18 16 15 14 13 15 11 9 8 9 9 10 7
16 16 17 15 15 15 16 18 16 16 19 15 14 13 12 13 16 16 19 19 17 15 13 13 14 16 17 17 16 15 16 15 14 14 14 13 14 14 15 13 15 14 12 11 13 12 14 12 13 12 12 15 14 14 13 21 21 22 23 19 11 12 11 10 9 10 10 10 9 10 10 13 18 19 18 16 13 15 14 9 9 9 9 3 3
17 17 17 15 16 17 19 19 18 18 18 16 11 10 10 11 17 19 17 16 13 13 13 13 15 15 16 17 17 14 15 14 12 13 13 13 12 13 13 14 14 12 12 12 11 10 11 11 11 10 10 10 12 18 9 18 21 22 23 24 13 13 12 11 11 10 10 10 10 9 10 12 17 18 18 16 15 13 14 9 10 11 7 7 4
19 20 20 18 17 18 19 20 19 19 18 16 14 11 11 10 14 18 17 12 11 13 13 13 14 14 14 15 14 15 14 15 13 14 14 14 12 13 13 12 12 11 12 12 11 10 9 9 9 8 8 10 9 12 16 16 20 21 22 22 21 15 16 12 11 10 10 10 9 9 8 13 16 17 18 18 18 18 11 11 15 13 8 6 4
20 20 19 21 19 18 19 20 20 18 17 17 12 9 10 11 14 14 13 10 11 12 13 13 13 14 13 14 14 14 14 15 14 13 14 13 13 13 11 11 12 11 11 11 11 10 9 9 9 9 10 9 9 7 12 19 18 22 21 24 24 20 15 13 11 10 8 8 9 9 8 11 15 17 18 18 19 18 13 16 15 14 10 6 4
19 19 20 20 18 20 21 21 17 15 15 13 9 8 9 12 11 11 11 11 12 13 13 13 13 13 13 13 12 12 13 14 13 14 13 13 14 13 11 11 11 11 11 11 10 10 11 10 9 9 8 8 7 8 7 13 21 22 23 23 24 23 18 15 13 9 10 4 4 5 3 2 10 14 17 17 15 16 19 17 15 14 10 5 5
20 20 22 21 21 21 20 18 17 17 19 12 8 8 10 9 9 10 11 11 13 13 14 14 14 13 14 15 14 15 14 13 13 13 13 12 14 14 12 11 11 11 10 10 10 10 10 10 10 10 9 8 7 8 6 9 11 16 18 22 24 23 22 18 15 12 7 8 8 7 8 7 5 3 3 3 6 9 15 16 13 9 6 6 6
19 20 20 20 19 19 18 15 14 15 14 16 9 6 3 8 9 11 10 12 12 14 13 13 14 13 13 13 15 14 13 15 14 15 15 14 13 13 12 11 11 13 12 10 10 11 10 10 10 10 9 8 8 8 8 7 8 8 7 10 11 12 16 14 8 5 4 4 4 4 3 4 4 8 5 5 5 5 5 3 4 5 6 7 8
17 17 19 18 17 19 17 15 13 13 15 13 18 5 6 3 9 12 12 11 12 14 13 14 16 13 12 13 13 16 16 16 16 16 16 16 14 14 13 12 13 12 12 11 11 11 11 11 11 10 10 9 10 9 10 9 9 8 8 8 9 8 8 8 9 7 8 7 5 5 6 5 5 4 4 5 6 5 6 6 6 7 7 8 9
18 19 19 15 17 18 17 14 12 14 12 14 13 15 10 5 2 6 8 12 12 14 14 15 15 15 15 13 13 11 15 15 15 13 12 12 13 13 11 11 12 11 10 13 12 11 10 11 10 10 10 10 9 10 10 9 13 16 13 10 8 10 10 8 13 16 12 9 8 6 6 6 6 6 6 6 7 7 7 8 9 8 8 9 9
16 13 15 16 19 17 15 14 13 12 14 12 14 13 12 12 14 14 3 12 12 14 13 15 15 15 17 15 14 17 16 14 15 16 13 4 11 9 3 10 12 11 13 10 9 9 10 10 10 8 9 10 10 9 9 13 18 20 20 20 18 17 17 13 15 19 13 9 10 10 10 9 8 8 8 8 9 9 9 9 10 10 9 9 9
15 16 17 18 19 18 16 16 13 14 13 14 13 13 12 12 9 10 14 7 8 12 10 12 12 12 13 14 15 15 14 11 12 13 9 9 6 7 13 13 3 15 11 8 5 8 6 3 6 8 4 4 3 9 11 14 19 21 22 21 19 18 18 17 15 12 8 11 9 10 10 10 10 10 10 10 10 10 9 9 9 8 8 9 8
Wind_Direction
185 188 184 183 181 181 173 171 173 167 164 158 166 161 167 162 154 152 158 155 152 157 164 160 157 169 161 161 159 174 183 151 170 160 163 139 142 139 152 135 146 157 151 173 158 129 140 122 136 241 124 130 143 175 167 166 171 111 102 311 343 10 88 128 281 77 145 106 171 171 139 175 152 203 220 165 156 154 149 190 154 138 155 178 144
185 189 188 180 183 180 174 175 175 171 165 164 171 164 169 166 164 157 155 155 161 162 166 160 161 170 163 169 162 165 171 156 172 194 162 130 127 127 162 149 150 151 169 151 163 150 139 165 172 134 125 150 167 167 145 167 168 152 123 48 295 12 335 35 100 62 248 196 176 178 149 196 160 188 205 180 168 167 162 133 121 161 139 158 138
187 188 192 185 182 179 175 178 176 171 170 169 172 168 169 167 167 159 159 157 165 164 169 162 167 174 168 180 167 158 174 166 167 185 163 142 140 144 163 155 152 157 157 165 130 194 117 110 177 136 145 203 154 158 172 178 132 158 184 148 68 260 267 126 209 211 273 68 30 126 143 146 299 284 254 191 174 166 153 182 172 133 179 107 146
195 188 191 186 184 180 177 176 175 174 170 171 175 172 174 165 170 161 164 159 167 164 170 166 167 168 178 179 188 156 167 173 168 169 192 142 153 151 156 155 156 167 165 173 171 148 149 177 139 179 150 171 156 152 175 160 166 163 193 194 160 243 173 105 190 314 276 88 242 226 171 175 150 241 238 214 199 158 175 163 196 152 176 144 221
206 198 193 187 186 182 178 177 180 177 173 176 177 174 179 168 170 163 170 160 169 162 171 166 162 163 179 175 213 154 147 165 173 149 198 142 149 158 165 165 170 176 165 175 168 166 175 179 166 183 168 171 144 165 158 182 165 189 182 168 202 258 358 86 196 195 293 355 300 342 37 32 352 187 187 317 290 160 207 141 160 215 150 183 179
198 201 193 190 190 181 178 176 183 179 176 178 178 176 178 167 169 165 171 161 169 164 171 167 166 158 170 169 185 183 151 158 173 164 171 188 168 164 163 178 170 189 164 175 179 167 172 190 182 170 183 133 189 192 155 174 198 197 172 197 197 234 152 272 120 335 188 109 329 184 160 167 222 293 317 282 282 321 262 144 164 206 148 185 182
208 198 191 194 189 187 181 181 184 183 180 176 178 177 178 167 170 170 169 167 170 166 172 168 161 166 171 173 176 184 152 159 169 177 166 169 218 153 153 170 165 184 177 177 173 174 167 178 196 202 165 186 175 151 146 174 199 214 181 168 181 94 252 81 302 117 28 338 226 223 195 279 13 349 120 163 4 303 319 240 172 204 170 168 189
193 203 194 201 187 189 188 183 186 187 180 176 181 177 178 169 170 173 170 171 170 168 173 169 165 166 171 173 176 182 170 161 167 186 162 155 204 181 150 163 162 185 175 158 176 172 171 172 184 207 219 177 170 181 173 193 182 242 195 183 151 187 143 118 298 32 77 244 194 301 193 88 6 314 28 334 153 204 281 298 175 76 177 174 183
204 195 190 197 190 194 189 186 189 188 181 180 182 175 174 170 167 173 172 174 173 170 172 172 168 167 173 175 173 180 172 162 164 186 184 165 172 193 149 155 156 170 189 164 169 176 168 177 185 203 211 216 174 189 212 177 189 196 181 161 176 166 180 110 85 169 137 316 21 302 359 140 187 239 127 296 236 25 334 282 64 224 159 79 61
197 198 184 196 198 195 193 190 189 191 185 182 180 176 175 171 169 175 175 178 173 171 174 173 170 170 174 180 173 176 174 166 168 182 195 169 161 167 155 138 154 161 182 184 159 180 177 185 189 199 206 210 194 221 209 197 179 171 169 202 190 195 145 164 186 112 328 30 303 143 337 343 357 313 157 205 267 69 218 279 229 206 166 29 164
196 194 194 194 192 193 193 191 188 192 190 183 182 179 178 176 171 177 179 177 174 171 175 174 173 176 176 179 178 176 178 175 169 175 184 170 174 158 164 169 153 160 177 180 177 180 189 186 196 194 206 199 202 241 244 215 174 180 184 178 195 199 165 222 187 172 154 186 237 123 199 203 175 235 308 9 349 312 10 320 349 20 335 176 50
195 197 196 187 192 193 196 192 190 192 194 187 188 182 178 176 175 178 178 179 177 173 175 176 177 178 179 179 180 179 180 182 181 173 176 179 178 169 166 168 183 163 173 166 188 192 180 187 204 200 187 199 198 215 245 227 249 177 181 164 162 189 193 220 294 99 219 11 263 288 250 232 148 238 212 158 119 346 2 334 309 303 308 187 104
194 192 192 189 186 196 195 188 183 189 191 187 189 190 183 176 177 178 180 181 178 174 177 177 177 178 179 182 182 181 181 185 183 176 173 179 177 178 168 173 182 197 179 173 180 197 171 181 195 212 181 192 200 187 223 255 287 332 146 163 173 180 187 204 198 242 187 211 255 216 244 247 178 196 228 181 168 145 91 290 294 313 344 321 267
189 187 191 191 187 190 191 188 187 187 193 190 187 187 183 181 179 183 183 182 178 176 179 179 180 178 179 180 182 181 185 185 184 184 175 178 177 184 183 179 180 194 197 191 184 186 182 177 184 199 198 182 193 187 197 226 208 266 288 172 198 179 185 194 207 239 182 219 193 215 226 247 263 192 180 290 157 169 187 213 229 270 300 296 293
184 183 188 190 191 193 191 192 190 192 194 196 188 186 183 181 178 184 183 184 180 178 180 179 180 180 178 180 180 182 186 186 186 187 178 178 181 186 189 185 185 188 198 193 205 178 177 172 179 190 195 193 176 186 200 199 191 192 281 262 248 157 181 226 212 227 232 227 198 254 301 304 291 333 290 190 224 183 186 221 125 91 306 321 320
185 188 192 191 194 195 189 189 188 187 191 196 189 185 186 181 179 182 185 183 182 181 182 180 180 179 178 179 181 182 183 185 186 186 185 181 183 186 187 191 188 181 189 188 193 205 175 173 171 185 189 196 180 184 195 196 187 200 202 210 226 228 209 196 221 259 253 237 227 204 330 273 277 247 257 270 109 345 41 87 111 115 141 277 316
181 188 190 186 188 186 188 189 194 189 187 194 189 186 187 181 178 182 185 185 185 184 182 180 178 177 180 179 181 180 182 187 189 188 193 187 185 186 188 195 195 182 179 191 186 197 188 177 174 186 190 191 188 185 191 200 191 200 199 201 208 236 193 210 214 213 253 258 221 211 197 226 274 306 331 330 47 56 31 29 79 149 138 112 319
181 184 185 188 191 190 179 164 171 169 170 180 199 190 187 183 183 182 184 187 189 185 183 182 178 179 178 180 182 184 186 190 192 190 193 190 187 189 191 191 198 198 189 189 186 183 196 183 174 184 183 190 194 193 190 198 198 202 206 196 205 215 223 212 202 224 228 233 263 254 197 204 209 238 246 269 300 98 82 357 287 209 140 159 198
180 187 184 186 189 190 178 181 179 171 185 190 202 207 194 188 186 185 187 188 188 185 184 182 179 180 180 181 183 184 186 190 193 190 192 194 194 189 197 192 193 198 199 190 176 180 187 189 182 186 180 183 190 196 185 194 196 206 211 201 204 197 213 225 210 204 232 246 246 248 248 206 219 237 273 247 211 143 169 229 248 210 172 179 202
177 182 188 191 193 191 189 186 186 180 182 186 158 199 212 201 190 190 190 187 188 186 182 182 183 182 181 180 183 184 185 188 191 188 190 195 194 192 195 197 191 192 197 199 181 182 180 191 192 195 194 186 189 199 191 188 193 201 212 212 200 192 197 209 224 215 224 214 215 228 225 225 237 266 244 253 270 171 184 194 217 235 216 200 183
179 186 188 190 192 190 189 191 190 187 170 161 184 191 224 220 206 197 192 190 189 190 186 184 184 184 177 179 182 182 187 190 193 193 192 193 195 193 193 199 187 192 191 194 196 183 180 188 196 199 201 190 187 192 194 186 189 195 211 213 223 188 190 197 205 236 239 216 208 212 217 204 206 221 232 250 247 220 200 216 219 211 208 197 194
190 187 187 187 189 188 186 186 177 136 123 150 160 162 191 256 234 202 195 192 190 190 188 183 185 183 180 180 183 181 186 188 192 194 194 193 195 195 190 192 194 190 189 192 194 193 186 185 196 196 202 193 187 184 190 189 185 197 203 210 224 217 186 195 201 210 227 245 222 207 227 227 198 212 230 230 230 248 214 200 196 212 221 219 194
185 178 181 185 186 186 182 178 163 151 162 169 170 178 189 206 213 213 201 194 192 190 188 182 183 182 181 180 181 182 184 189 191 193 196 195 195 195 192 191 197 193 189 193 187 197 192 187 194 194 197 201 186 186 188 191 189 192 198 211 207 211 208 197 199 207 210 216 227 222 222 221 224 217 211 232 249 245 252 245 209 198 209 216 209
182 181 181 185 183 175 175 168 165 162 166 176 188 191 197 197 201 212 209 200 192 190 187 184 185 185 182 178 181 182 185 188 192 194 195 196 194 194 192 195 196 197 191 191 187 191 191 190 192 194 191 199 191 187 191 195 192 190 196 206 213 202 205 210 210 204 211 213 211 212 223 222 216 220 216 215 221 240 255 252 268 261 205 209 209
177 188 179 159 169 179 175 172 176 178 178 185 188 194 197 205 193 202 213 205 194 189 186 185 185 185 182 182 183 184 186 189 191 194 195 196 194 192 192 195 195 198 191 190 190 186 189 189 192 196 193 193 195 189 190 197 198 193 194 201 210 214 203 204 210 214 212 212 216 218 215 219 225 220 215 215 221 234 228 238 242 234 237 239 239
174 185 175 172 173 175 177 178 178 180 185 189 191 193 198 193 195 206 207 205 195 190 189 184 185 184 182 182 184 185 188 190 192 193 194 194 195 192 191 194 195 196 191 189 190 189 189 190 193 195 198 193 193 192 190 196 201 199 193 200 203 209 215 208 206 210 216 218 220 217 220 213 215 219 223 220 218 223 225 227 235 242 232 220 220
177 175 157 163 169 178 177 177 181 187 186 184 184 184 192 194 197 199 208 209 194 191 186 183 185 186 183 185 185 187 188 191 192 195 193 192 194 194 192 192 195 196 197 193 191 193 191 191 192 194 198 194 193 195 192 195 202 201 195 197 204 203 209 214 215 215 217 217 222 223 218 218 218 214 214 218 218 219 225 231 228 226 233 239 240
169 157 151 161 169 175 179 177 182 188 193 193 189 193 194 192 195 197 203 203 196 191 185 183 186 186 185 186 186 187 188 188 190 193 194 192 195 195 192 187 190 196 199 198 193 192 191 192 191 195 196 195 193 195 195 196 201 203 196 194 201 205 206 210 214 215 220 223 217 220 225 220 219 218 218 219 216 222 212 223 226 230 228 226 233
158 157 153 168 172 180 183 182 186 191 195 192 190 193 189 198 198 190 203 204 192 188 187 185 186 188 186 186 183 185 184 184 186 189 195 195 195 194 190 184 184 195 199 203 198 190 192 194 192 193 198 198 196 197 198 196 199 204 204 196 195 204 208 207 210 216 217 222 227 223 218 223 210 210 211 213 221 222 224 220 221 219 224 225 226
40 37 11 168 172 173 186 185 188 193 192 192 190 188 191 197 196 190 197 202 182 188 187 187 189 190 185 182 181 182 183 182 183 186 193 195 192 194 194 189 182 190 196 199 202 188 188 191 192 190 197 201 201 200 199 195 194 199 203 206 196 199 207 210 207 213 219 217 222 231 233 222 215 204 203 207 213 219 220 228 225 207 215 220 227
30 29 40 23 24 136 135 187 195 198 192 194 186 189 192 197 194 197 195 197 188 185 186 186 189 187 181 180 181 184 182 182 182 185 188 192 193 190 194 191 183 186 194 195 199 195 188 191 194 195 197 203 205 205 192 191 194 198 199 205 201 195 199 207 211 210 216 222 223 222 230 243 240 212 204 205 209 214 219 226 234 235 223 215 231
25 22 25 33 34 28 56 80 28 353 328 253 210 187 191 195 198 197 197 198 194 186 189 187 183 181 179 181 184 182 183 184 182 185 185 190 192 190 191 192 187 184 190 192 198 199 194 187 192 197 199 201 206 202 185 189 192 196 199 202 206 203 199 203 211 215 216 220 226 229 226 227 221 221 196 204 213 216 218 223 228 233 237 237 224
14 17 14 19 10 5 7 15 149 161 203 247 270 264 207 196 200 200 195 199 197 190 184 182 181 179 181 183 183 184 185 185 186 185 184 186 191 191 191 191 191 184 183 192 197 200 201 196 189 193 201 201 207 199 183 187 191 194 201 204 208 209 208 205 206 212 218 219 219 225 238 237 232 208 205 196 200 215 221 222 224 230 238 238 239
16 11 6 8 353 353 344 335 323 307 236 215 219 223 246 197 217 200 203 198 198 190 178 180 180 178 179 181 183 185 186 187 185 184 183 186 190 194 193 189 189 182 183 191 196 201 204 205 200 191 195 203 208 190 184 186 190 193 198 203 212 209 212 213 208 207 213 219 217 219 222 231 237 236 211 203 198 209 210 217 221 225 232 242 242
2 4 357 352 340 333 332 320 310 334 293 249 221 222 240 227 219 225 205 196 196 196 178 178 177 176 177 180 184 186 188 186 184 184 184 188 191 193 193 191 191 188 184 188 194 200 204 208 210 201 192 201 212 184 182 185 190 193 198 199 211 217 217 215 215 210 208 212 217 218 221 226 227 229 226 212 200 200 202 208 217 225 230 237 237
346 344 340 337 332 330 316 312 307 293 282 266 256 231 235 236 205 216 213 207 197 196 177 175 176 176 178 181 183 186 187 186 186 185 186 189 191 192 193 191 192 194 191 186 193 202 202 206 208 212 212 204 210 175 181 185 190 194 194 190 207 218 229 236 226 218 212 209 211 214 218 224 229 230 222 214 214 210 210 214 210 214 222 230 234
336 335 331 324 315 306 312 311 303 302 287 267 274 243 233 224 194 217 228 218 210 195 182 178 180 177 177 179 183 185 187 187 186 188 189 190 189 190 192 190 193 195 193 192 195 201 202 206 206 209 217 214 212 179 181 186 189 192 181 186 203 211 221 231 245 253 255 228 215 213 214 221 226 230 227 210 213 207 223 225 226 227 226 229 231
333 329 323 320 320 323 319 318 311 303 291 273 252 244 216 225 207 202 211 197 213 202 189 180 182 180 179 181 182 185 186 186 187 191 190 190 187 187 191 190 195 196 198 197 196 199 203 206 206 208 208 212 218 179 185 187 190 184 180 186 198 206 216 223 232 239 247 254 250 236 226 225 228 230 222 209 202 198 218 225 230 233 236 241 245
332 328 323 325 322 316 307 299 290 279 274 268 261 246 232 208 195 198 210 207 209 200 190 184 183 181 179 178 181 184 185 186 189 190 188 187 189 186 189 188 196 200 200 196 194 200 205 208 209 210 205 205 218 188 186 184 187 182 187 195 193 201 209 214 217 224 226 235 239 241 236 232 232 234 229 209 200 194 213 218 225 234 240 244 248
332 329 331 321 311 302 300 297 293 289 273 247 247 242 233 215 217 202 203 205 200 199 192 185 179 176 175 178 185 184 184 186 185 185 186 185 182 186 191 192 196 200 201 201 195 198 204 209 208 210 204 202 213 203 183 187 183 184 189 190 193 197 206 209 209 212 217 219 226 231 228 226 229 232 229 214 202 199 208 217 217 227 235 241 242
335 332 328 318 312 307 302 298 293 288 290 276 248 237 224 206 214 217 206 202 198 192 183 176 176 179 179 181 186 184 184 184 185 182 185 185 186 189 190 190 196 199 201 203 203 199 205 206 210 207 210 208 210 212 184 186 186 185 191 191 195 200 202 203 205 211 218 220 219 222 230 219 219 225 226 220 207 205 212 216 216 221 229 196 84
336 331 328 322 315 310 304 297 291 287 282 270 249 242 233 212 205 211 207 203 189 177 175 173 176 180 181 183 185 182 182 183 181 180 183 187 186 189 189 187 196 197 199 201 203 204 203 204 209 204 210 212 203 208 171 188 188 190 191 196 198 199 198 200 205 214 218 226 226 218 220 219 212 217 221 220 216 209 211 217 225 222 205 137 219
336 332 329 326 318 311 304 299 294 290 283 278 252 230 236 232 208 199 199 195 171 170 170 168 173 176 181 182 183 180 179 189 186 183 185 186 183 190 188 185 192 194 196 197 201 207 207 204 200 201 203 207 208 205 178 179 192 192 194 199 204 202 195 201 207 214 216 224 225 229 228 216 206 208 213 215 214 216 207 216 223 226 217 189 186
335 329 326 326 319 310 304 296 292 285 282 277 254 223 229 224 211 196 187 172 159 161 162 164 170 177 178 184 185 181 181 189 186 182 186 185 186 190 187 185 188 191 192 196 198 203 210 212 208 203 206 204 202 205 177 179 182 191 195 198 207 213 189 203 207 218 218 222 232 231 230 222 200 202 207 210 213 212 213 219 222 226 230 233 241
332 326 323 321 317 310 302 299 296 287 275 274 249 228 229 213 202 179 170 158 156 156 160 162 171 173 179 186 183 184 183 187 186 183 185 187 186 186 189 185 186 191 193 193 194 194 202 209 215 214 211 206 199 201 159 182 182 189 194 199 206 209 213 203 207 216 221 221 100 98 90 197 207 207 206 207 211 213 216 220 219 222 222 219 214
332 330 328 321 315 312 308 312 324 340 331 266 224 230 222 207 179 167 159 151 153 156 160 164 170 175 182 188 189 188 184 189 185 186 188 189 187 187 189 184 185 190 192 191 190 193 198 204 211 215 214 208 200 209 172 163 186 191 195 200 203 208 213 214 214 218 194 136 153 116 106 105 120 150 190 196 199 207 211 214 214 205 195 207 208
327 322 319 321 319 315 319 321 326 339 338 343 286 194 185 175 164 160 149 147 153 157 160 163 169 177 183 191 191 192 186 192 187 188 192 191 190 190 189 184 185 191 193 193 189 192 194 198 206 209 211 210 206 205 192 165 168 172 191 198 208 221 224 228 239 248 165 185 156 203 148 139 112 160 191 202 209 184 163 163 198 202 208 209 207
326 317 318 318 325 325 323 338 338 345 347 354 358 311 139 160 163 167 144 147 152 161 162 166 173 177 183 190 190 186 183 194 189 189 189 191 192 191 190 185 188 189 190 190 189 191 193 195 199 204 207 209 214 207 206 181 172 167 175 174 186 190 190 187 206 215 217 209 191 116 150 137 135 155 197 193 198 170 182 175 189 195 207 213 217
328 325 321 327 329 323 322 348 357 354 358 3 3 0 357 0 265 189 137 152 154 164 165 171 175 183 191 190 189 178 186 192 187 187 188 188 191 191 187 187 191 192 192 189 191 190 192 195 195 199 198 208 212 214 211 196 170 179 173 179 175 194 194 185 205 205 210 224 224 193 197 200 196 195 205 206 203 193 196 197 195 196 202 209 213
325 311 319 335 334 320 327 357 358 354 356 2 5 3 4 11 4 340 260 160 157 167 169 179 180 188 194 190 193 189 186 191 186 187 181 120 27 45 114 185 186 189 188 185 184 197 197 196 203 201 201 205 208 214 200 189 163 175 184 185 189 186 188 191 196 197 198 209 212 223 221 217 220 222 220 216 213 211 204 200 208 208 206 204 204
323 331 343 342 334 330 339 352 358 360 1 4 7 8 7 8 1 18 0 323 173 165 175 182 186 194 191 189 189 187 184 187 181 183 163 144 137 81 46 30 13 174 151 116 142 145 134 135 184 203 170 47 258 197 191 178 166 178 186 190 186 183 185 195 178 163 197 209 211 218 221 222 224 229 230 226 223 221 222 221 215 206 211 221 216